Colby, KS

6:23 PM CST on November 14, 2019 (GMT -0600)
Shaltz

Weather History for KCBK - September, 2019

Change the Weather History Date:

Wednesday, September 11, 2019

  Actual Average (WUND) Record (WUND)
Temperature  
Mean Temperature 80 °F -  
Max Temperature 91 °F - - (-1)
Min Temperature 66 °F - - (-1)
Cooling Degree Days 14    
Growing Degree Days 30 (Base 50)    
Moisture  
Dew Point 57 °F    
Average Humidity 52    
Maximum Humidity 73    
Minimum Humidity 29    
Precipitation  
Precipitation 0.00 in - - ()
Sea Level Pressure  
Sea Level Pressure 29.90 in    
Wind  
Wind Speed 16 mph (South)    
Max Wind Speed 25 mph    
Max Gust Speed 44 mph    
Visibility 10 miles    
Events      
Averages and records for this station are not official NWS values.
T = Trace of Precipitation, MM = Missing Value Source: NWS Daily Summary

Daily Weather History Graph

Daily Weather History Graph

Search for Another Location

Airport or City:

Astronomy

Sep. 11, 2019 Rise Set
Actual Time 7:21 AM CDT 7:59 PM CDT
Civil Twilight 6:54 AM CDT 8:26 PM CDT
Nautical Twilight 6:22 AM CDT 8:58 PM CDT
Astronomical Twilight 5:49 AM CDT 9:31 PM CDT
Moon 7:11 PM CDT (9/11) 4:47 AM CDT (9/11)
Length of Visible Light 13h 31m
Length of Day
12h 37m
Waxing Gibbous, 95% of the Moon is Illuminated
Sep 11
Waxing Gibbous
Sep 13
Full
Sep 21
Last Quarter
Sep 28
New
Oct 5
First Quarter

Hourly Weather History & Observations

Time (CDT) Temp. Heat Index Dew Point Humidity Pressure Visibility Wind Dir Wind Speed Gust Speed Precip Events Conditions
12:15 AM 73.4 °F - 57.2 °F 57% 29.91 in 10.0 mi South 19.6 mph 25.3 mph N/A   Clear
12:35 AM 73.4 °F - 55.4 °F 53% 29.91 in 10.0 mi South 17.3 mph 26.5 mph N/A   Clear
12:55 AM 73.4 °F - 55.4 °F 53% 29.91 in 10.0 mi SSE 15.0 mph - N/A   Clear
1:15 AM 73.4 °F - 55.4 °F 53% 29.91 in 10.0 mi SSE 16.1 mph 19.6 mph N/A   Clear
1:35 AM 73.4 °F - 57.2 °F 57% 29.92 in 10.0 mi South 12.7 mph - N/A   Clear
1:55 AM 71.6 °F - 59.0 °F 64% 29.93 in 10.0 mi SSE 13.8 mph - N/A   Clear
2:15 AM 71.6 °F - 59.0 °F 64% 29.92 in 10.0 mi SSE 13.8 mph - N/A   Clear
2:35 AM 71.6 °F - 57.2 °F 60% 29.93 in 10.0 mi South 12.7 mph 18.4 mph N/A   Clear
3:15 AM 71.6 °F - 55.4 °F 57% 29.92 in 10.0 mi South 12.7 mph - N/A   Clear
3:35 AM 69.8 °F - 55.4 °F 60% 29.91 in 10.0 mi South 10.4 mph - N/A   Clear
3:55 AM 69.8 °F - 55.4 °F 60% 29.92 in 10.0 mi South 11.5 mph - N/A   Clear
4:15 AM 69.8 °F - 53.6 °F 56% 29.92 in 10.0 mi South 13.8 mph - N/A   Clear
4:35 AM 71.6 °F - 55.4 °F 57% 29.92 in 10.0 mi South 12.7 mph 19.6 mph N/A   Clear
4:55 AM 69.8 °F - 55.4 °F 60% 29.92 in 10.0 mi South 15.0 mph 19.6 mph N/A   Clear
5:15 AM 69.8 °F - 55.4 °F 60% 29.92 in 10.0 mi South 13.8 mph 17.3 mph N/A   Clear
5:35 AM 68.0 °F - 53.6 °F 60% 29.92 in 10.0 mi South 12.7 mph - N/A   Clear
5:55 AM 68.0 °F - 53.6 °F 60% 29.92 in 10.0 mi South 15.0 mph - N/A   Clear
6:15 AM 68.0 °F - 55.4 °F 64% 29.92 in 10.0 mi South 13.8 mph 17.3 mph N/A   Clear
6:55 AM 68.0 °F - 57.2 °F 68% 29.92 in 10.0 mi South 15.0 mph 18.4 mph N/A   Clear
7:15 AM 68.0 °F - 59.0 °F 73% 29.93 in 10.0 mi South 13.8 mph 18.4 mph N/A   Clear
7:35 AM 68.0 °F - 59.0 °F 73% 29.93 in 10.0 mi South 12.7 mph 17.3 mph N/A   Clear
7:55 AM 68.0 °F - 59.0 °F 73% 29.94 in 10.0 mi South 12.7 mph - N/A   Clear
8:15 AM 68.0 °F - 59.0 °F 73% 29.94 in 10.0 mi South 10.4 mph - N/A   Clear
8:35 AM 68.0 °F - 59.0 °F 73% 29.95 in 10.0 mi South 11.5 mph - N/A   Clear
8:55 AM 69.8 °F - 59.0 °F 68% 29.95 in 10.0 mi South 9.2 mph - N/A   Clear
9:15 AM 71.6 °F - 59.0 °F 64% 29.94 in 10.0 mi South 12.7 mph 19.6 mph N/A   Clear
9:35 AM 71.6 °F - 59.0 °F 64% 29.95 in 10.0 mi South 13.8 mph 18.4 mph N/A   Clear
9:55 AM 73.4 °F - 59.0 °F 61% 29.95 in 10.0 mi SSW 13.8 mph 18.4 mph N/A   Clear
10:15 AM 71.6 °F - 60.8 °F 69% 29.95 in 10.0 mi South 13.8 mph 20.7 mph N/A   Clear
10:35 AM 77.0 °F - 59.0 °F 54% 29.94 in 10.0 mi South 17.3 mph 23.0 mph N/A   Clear
10:55 AM 78.8 °F - 59.0 °F 51% 29.95 in 10.0 mi South 18.4 mph 24.2 mph N/A   Clear
11:15 AM 78.8 °F - 59.0 °F 51% 29.93 in 10.0 mi SSW 16.1 mph 23.0 mph N/A   Clear
11:35 AM 80.6 °F 81.1 °F 59.0 °F 48% 29.93 in 10.0 mi SSW 15.0 mph 20.7 mph N/A   Clear
11:55 AM 82.4 °F 82.5 °F 59.0 °F 45% 29.93 in 10.0 mi SSW 15.0 mph 19.6 mph N/A   Clear
12:15 PM 84.2 °F 83.8 °F 59.0 °F 42% 29.93 in 10.0 mi South 15.0 mph 20.7 mph N/A   Clear
12:35 PM 84.2 °F 83.8 °F 59.0 °F 42% 29.93 in 10.0 mi South 17.3 mph 23.0 mph N/A   Clear
12:55 PM 86.0 °F 84.9 °F 57.2 °F 37% 29.93 in 10.0 mi South 17.3 mph 21.9 mph N/A   Clear
1:55 PM 87.8 °F 86.1 °F 55.4 °F 33% 29.91 in 10.0 mi South 19.6 mph 23.0 mph N/A   Clear
2:15 PM 89.6 °F 87.3 °F 53.6 °F 29% 29.91 in 10.0 mi SSW 17.3 mph 26.5 mph N/A   Clear
2:35 PM 89.6 °F 87.7 °F 55.4 °F 31% 29.90 in 10.0 mi South 19.6 mph 25.3 mph N/A   Clear
2:55 PM 89.6 °F 87.7 °F 55.4 °F 31% 29.89 in 10.0 mi South 20.7 mph 26.5 mph N/A   Clear
3:15 PM 91.4 °F 89.4 °F 55.4 °F 29% 29.88 in 10.0 mi South 17.3 mph 27.6 mph N/A   Scattered Clouds
3:35 PM 91.4 °F 89.4 °F 55.4 °F 29% 29.87 in 10.0 mi South 18.4 mph 23.0 mph N/A   Scattered Clouds
3:55 PM 91.4 °F 89.4 °F 55.4 °F 29% 29.86 in 10.0 mi South 20.7 mph 27.6 mph N/A   Mostly Cloudy
4:15 PM 89.6 °F 87.7 °F 55.4 °F 31% 29.86 in 10.0 mi South 23.0 mph 32.2 mph N/A   Mostly Cloudy
4:35 PM 89.6 °F 87.7 °F 55.4 °F 31% 29.86 in 10.0 mi South 19.6 mph 25.3 mph N/A   Scattered Clouds
4:55 PM 89.6 °F 87.7 °F 55.4 °F 31% 29.86 in 10.0 mi South 20.7 mph 32.2 mph N/A   Scattered Clouds
5:35 PM 87.8 °F 86.1 °F 55.4 °F 33% 29.86 in 10.0 mi South 23.0 mph 27.6 mph N/A   Clear
5:55 PM 86.0 °F 84.9 °F 57.2 °F 37% 29.85 in 10.0 mi South 19.6 mph 26.5 mph N/A   Clear
6:15 PM 84.2 °F 83.5 °F 57.2 °F 40% 29.85 in 10.0 mi SSE 17.3 mph 25.3 mph N/A   Clear
6:35 PM 84.2 °F 83.5 °F 57.2 °F 40% 29.85 in 10.0 mi SSE 17.3 mph 24.2 mph N/A   Clear
6:55 PM 82.4 °F 82.5 °F 59.0 °F 45% 29.85 in 10.0 mi SSE 15.0 mph 23.0 mph N/A   Clear
7:35 PM 82.4 °F 82.5 °F 59.0 °F 45% 29.85 in 10.0 mi South 17.3 mph 23.0 mph N/A   Clear
7:55 PM 80.6 °F 81.1 °F 59.0 °F 48% 29.84 in 10.0 mi South 19.6 mph 25.3 mph N/A   Clear
8:15 PM 80.6 °F 81.1 °F 59.0 °F 48% 29.85 in 10.0 mi South 20.7 mph 25.3 mph N/A   Clear
8:35 PM 78.8 °F - 60.8 °F 54% 29.84 in 10.0 mi South 25.3 mph 33.4 mph N/A   Clear
8:55 PM 77.0 °F - 60.8 °F 57% 29.85 in 10.0 mi South 19.6 mph 26.5 mph N/A   Clear
9:15 PM 75.2 °F - 60.8 °F 61% 29.86 in 10.0 mi South 13.8 mph 18.4 mph N/A   Clear
9:35 PM 78.8 °F - 59.0 °F 51% 29.85 in 10.0 mi South 19.6 mph 29.9 mph N/A   Clear
9:55 PM 77.0 °F - 59.0 °F 54% 29.86 in 10.0 mi South 19.6 mph 25.3 mph N/A   Clear
10:15 PM 77.0 °F - 59.0 °F 54% 29.86 in 10.0 mi South 18.4 mph 25.3 mph N/A   Clear
10:55 PM 77.0 °F - 59.0 °F 54% 29.88 in 10.0 mi South 18.4 mph 25.3 mph N/A   Clear
11:15 PM 77.0 °F - 59.0 °F 54% 29.88 in 10.0 mi South 18.4 mph 28.8 mph N/A   Clear
11:35 PM 75.2 °F - 59.0 °F 57% 29.89 in 10.0 mi South 16.1 mph 25.3 mph N/A   Clear
11:55 PM 66.2 °F - 53.6 °F 64% 29.96 in 10.0 mi North 24.2 mph 43.7 mph N/A   Mostly Cloudy